Regional Weather Roundup
Issued by NWS

Home | Current Version | Previous Version | Text Only | Print | Product List | Glossary On
Versions: 1 2 3 4 5 6 7 8 9 10 11 12 13 14 15 16 17 18 19 20 21 22 23 24 25 26 27 28 29 30 31 32 33 34 35 36 37 38 39 40 41 42 43 44 45 46 47 48 49 50
000
ASUS43 KOAX 181810
RWRNE

WEATHER ROUNDUP FOR NEBRASKA
NATIONAL WEATHER SERVICE OMAHA NE
1200 PM CST WED JAN 18 2017

NOTES: SATELLITE DATA IS BEING USED TO AUGMENT CLOUD COVER ABOVE
       12000 FEET.
       "FAIR" INDICATES FEW OR NO CLOUDS BELOW 12,000 FEET WITH NO
       SIGNIFICANT WEATHER AND/OR OBSTRUCTIONS TO VISIBILITY.

  * THESE STATIONS DO NOT REPORT WEATHER SUCH AS RAIN...SNOW OR FOG.

NEZ001>004-019>022-054>056-181900-
NEBRASKA PANHANDLE

CITY           SKY/WX    TMP DP  RH WIND       PRES   REMARKS
SCOTTSBLUFF    SUNNY     42  20  41 NW7       29.84F
6HR MIN TEMP:  20; 6HR MAX TEMP:  42;

ALLIANCE       SUNNY     47  20  34 W12       29.82F
6HR MIN TEMP:  13; 6HR MAX TEMP:  47;

CHADRON        SUNNY     33  22  63 SW9       29.82F WCI  25
6HR MIN TEMP:  17; 6HR MAX TEMP:  33;

KIMBALL        CLOUDY    39  27  63 W5        29.86F
SIDNEY         CLOUDY    45  25  45 W9        29.87F
6HR MIN TEMP:  22; 6HR MAX TEMP:  45;

$$

NEZ057>060-069>072-079>082-181900-
SOUTHWEST NEBRASKA

CITY           SKY/WX    TMP DP  RH WIND       PRES   REMARKS
NORTH PLATTE   SUNNY     38  28  67 S5        29.88F WCI  34
6HR MIN TEMP:  16; 6HR MAX TEMP:  38;

IMPERIAL       SUNNY     37  27  67 W3        29.90F
6HR MIN TEMP:  22; 6HR MAX TEMP:  37;

LEXINGTON      CLOUDY    41  34  75 SE6       29.92F
MCCOOK         CLOUDY    34  30  85 W5        29.93F WCI  30
6HR MIN TEMP:  22; 6HR MAX TEMP:  34;

OGALLALA       SUNNY     37  29  73 W8        29.88F WCI  31
$$

NEZ005>010-023>029-035>040-094-181900-
NORTH CENTRAL NEBRASKA

CITY           SKY/WX    TMP DP  RH WIND       PRES   REMARKS
VALENTINE      SUNNY     49  20  31 SW12      29.81F
6HR MIN TEMP:  19; 6HR MAX TEMP:  49;

AINSWORTH      SUNNY     46  26  45 SW8       29.82F
BROKEN BOW     SUNNY     41  30  65 S9        29.87F
6HR MIN TEMP:  22; 6HR MAX TEMP:  41;

O`NEILL        SUNNY     47  31  53 SW8       29.84F
ORD            SUNNY     43  31  62 S9        29.87F
6HR MIN TEMP:  23; 6HR MAX TEMP:  43;

THEDFORD       MOSUNNY   47  25  41 SW6       29.85F
$$

NEZ041-046>049-061>064-073>077-083>087-181900-
SOUTH CENTRAL NEBRASKA

CITY           SKY/WX    TMP DP  RH WIND       PRES   REMARKS
GRAND ISLAND   CLOUDY    41  35  79 S10       29.96F
6HR MIN TEMP:  29; 6HR MAX TEMP:  41;

AURORA         SUNNY     44  36  74 SW13G20   29.96F
HASTINGS       MOSUNNY   39  32  76 S7        29.97F WCI  34
6HR MIN TEMP:  28; 6HR MAX TEMP:  40;

HEBRON         SUNNY     46  38  74 S9        30.01F
HOLDREGE       CLOUDY    37  33  84 S8        29.94F WCI  31
KEARNEY *      CLOUDY    39  34  81 S14       29.94F WCI  31
YORK           SUNNY     41  36  81 S12       29.98F
$$

NEZ011>018-030>034-042>045-181900-
NORTHEAST NEBRASKA

CITY           SKY/WX    TMP DP  RH WIND       PRES   REMARKS
NORFOLK        SUNNY     41  34  76 S17       29.90F
6HR MIN TEMP:  27; 6HR MAX TEMP:  41;

ALBION         SUNNY     40  35  79 S7        29.91F
BLAIR          SUNNY     44  37  76 S14       29.97F
FREMONT        SUNNY     43  36  76 S12       29.97F
TEKAMAH        SUNNY     42  36  79 S10       29.96F
6HR MIN TEMP:  27; 6HR MAX TEMP:  42;

WAYNE          SUNNY     44  38  81 SW10      29.91F
$$

NEZ050>053-065>068-078-088>093-181900-
SOUTHEAST NEBRASKA

CITY           SKY/WX    TMP DP  RH WIND       PRES   REMARKS
LINCOLN        SUNNY     46  37  71 SW7       30.01F
6HR MIN TEMP:  26; 6HR MAX TEMP:  46;

OMAHA EPPLEY   MOSUNNY   41  34  76 S12       30.00F
6HR MIN TEMP:  25; 6HR MAX TEMP:  41;

BEATRICE       SUNNY     44  37  76 S7        30.02F
FALLS CITY     SUNNY     44  37  76 S12       30.07F
6HR MIN TEMP:  24; 6HR MAX TEMP:  44;

NEBRASKA CITY  SUNNY     41  35  80 S12       30.04S
PLATTSMOUTH    SUNNY     42  35  75 S9        30.01F
$$

NEZ044-045-051>053-067-181900-
OMAHA AREA

CITY           SKY/WX    TMP DP  RH WIND       PRES   REMARKS
OMAHA EPPLEY   MOSUNNY   41  34  76 S12       30.00F
6HR MIN TEMP:  25; 6HR MAX TEMP:  41;

BLAIR          SUNNY     44  37  76 S14       29.97F
FREMONT        SUNNY     43  36  76 S12       29.97F
MILLARD        SUNNY     46  37  71 SE6       30.00F
OFFUTT AFB     SUNNY     40  40  97 SE6       30.00F
PLATTSMOUTH    SUNNY     42  35  75 S9        30.01F
WAHOO          FAIR      44  36  75 S9        29.98F
$$



USA.gov is the U.S. government's official web portal to all federal, state and local government web resources and services.